Total_Precipitation_Accumulation
0.00 0.02 0.01 0.00 0.00 0.00 0.01 0.01 0.00 0.00 0.00 0.00 0.01 0.04 0.18 0.23 0.18 0.09 0.08 0.07 0.15 0.26 0.24 0.68 1.28 0.97 1.22 0.98 0.94 1.03 1.26 1.18 0.84 0.51 0.45 0.46 0.51 0.60 0.97 1.05 0.79 1.04 1.29 1.28
0.04 0.03 0.00 0.00 0.00 0.00 0.02 0.03 0.01 0.01 0.01 0.02 0.01 0.00 0.03 0.08 0.02 0.02 0.02 0.06 0.08 0.16 0.32 0.66 0.88 0.99 0.79 0.87 0.99 1.08 0.77 0.69 0.77 0.62 0.37 0.23 0.24 0.37 0.70 1.04 0.86 0.92 1.03 1.11
0.05 0.02 0.00 0.02 0.01 0.01 0.01 0.05 0.03 0.03 0.02 0.00 0.03 0.10 0.26 0.22 0.19 0.18 0.05 0.05 0.12 0.12 0.41 0.41 0.68 0.94 0.87 0.50 0.54 0.95 0.73 0.48 0.66 0.92 0.90 0.69 0.42 0.42 1.14 1.45 1.17 0.97 1.10 1.12
0.20 0.03 0.03 0.03 0.01 0.07 0.06 0.00 0.02 0.02 0.12 0.08 0.09 0.16 0.12 0.15 0.16 0.11 0.04 0.01 0.04 0.08 0.41 0.79 0.42 0.41 0.91 0.99 0.47 0.91 1.04 0.60 0.49 0.63 0.88 0.87 0.82 0.58 0.74 1.22 1.10 0.92 1.25 1.28
0.26 0.03 0.06 0.07 0.04 0.07 0.05 0.00 0.02 0.04 0.12 0.27 0.11 0.50 0.25 0.20 0.21 0.06 0.02 0.01 0.01 0.05 0.20 0.66 0.80 0.51 0.49 1.20 1.21 1.26 1.21 1.14 0.64 0.62 0.78 1.06 1.03 0.96 1.04 1.45 1.76 1.46 1.39 1.51
0.07 0.02 0.13 0.20 0.01 0.03 0.05 0.08 0.11 0.15 0.33 0.82 0.13 0.41 0.50 0.31 0.41 0.28 0.13 0.07 0.04 0.03 0.32 0.42 0.53 0.78 0.73 0.54 1.06 1.65 1.86 1.42 1.04 0.88 0.83 0.84 0.92 0.84 1.02 1.37 2.05 2.42 2.20 1.99
0.14 0.12 0.07 0.15 0.20 0.10 0.17 0.42 0.98 1.01 0.94 0.69 0.09 0.31 0.54 0.51 0.48 0.65 0.57 0.41 0.25 0.20 0.29 0.97 0.39 0.59 0.92 0.99 0.65 0.90 1.75 1.79 1.20 0.86 0.81 0.76 0.91 1.19 1.14 1.18 1.78 2.40 3.06 3.07
0.61 0.60 0.22 0.32 0.45 0.30 0.20 0.57 1.06 0.99 0.44 0.19 0.17 0.52 0.43 0.49 0.47 0.54 0.83 0.71 0.58 0.43 0.47 0.82 0.95 0.59 0.99 1.24 1.18 0.83 1.08 1.53 1.52 1.14 1.03 0.89 0.92 1.13 1.41 1.29 1.43 2.22 2.64 2.87
1.08 0.80 0.37 0.37 0.32 0.44 0.80 0.92 0.37 1.34 1.04 1.19 0.38 0.74 0.67 0.63 0.66 0.53 0.70 0.69 0.60 0.51 0.65 0.64 0.68 0.93 0.91 1.32 1.46 1.14 0.99 1.43 1.30 1.43 1.31 1.21 1.21 1.34 1.28 1.20 1.29 1.83 2.29 2.53
1.60 1.78 0.40 0.42 0.73 0.64 0.78 0.83 1.76 3.19 3.14 2.00 0.76 0.72 1.96 1.75 1.37 1.35 1.05 0.67 0.62 0.56 0.57 1.05 0.68 0.63 1.15 1.23 1.78 1.80 1.19 1.08 1.43 1.37 1.41 1.04 1.03 1.27 1.37 1.34 1.41 1.56 2.14 2.83
1.48 2.05 1.07 0.75 1.31 1.38 1.16 1.74 2.89 3.38 2.61 2.34 2.11 2.86 2.55 2.38 1.72 1.43 0.91 0.56 0.46 0.33 0.50 0.72 1.29 0.80 1.27 1.57 1.64 2.10 2.13 1.81 1.60 1.53 1.31 1.36 1.37 1.70 1.81 1.91 1.93 2.15 2.72 3.04
1.33 2.03 1.62 0.99 0.60 0.61 1.18 2.00 3.07 5.10 4.46 3.68 4.03 4.55 2.62 1.92 1.62 1.05 0.47 0.32 0.29 0.31 0.31 0.44 1.22 1.53 1.46 1.88 2.05 1.95 2.27 2.82 2.20 1.80 1.74 2.10 2.45 2.46 2.36 2.36 2.59 2.59 2.48 2.60
1.30 2.02 2.03 1.44 1.36 1.11 1.87 2.01 2.34 3.15 3.91 3.99 4.62 4.50 2.68 1.68 0.87 0.54 0.52 0.37 0.22 0.23 0.22 0.32 0.59 1.03 1.68 1.10 1.81 1.67 1.46 2.37 3.03 2.94 2.70 2.58 2.80 2.71 2.75 2.75 2.52 2.35 2.64 2.95
1.76 1.49 1.97 2.07 2.57 1.94 1.67 1.32 1.70 2.70 3.28 2.49 2.34 1.96 1.44 1.08 0.62 0.40 0.32 0.27 0.27 0.24 0.30 0.35 0.41 0.56 0.82 1.18 1.78 2.90 1.62 1.90 2.54 2.82 2.68 2.51 2.79 2.78 2.65 2.41 2.12 1.87 1.96 2.09
2.09 2.13 1.73 1.70 1.23 0.75 1.08 1.11 0.94 1.62 1.49 2.07 2.04 1.11 1.00 1.33 0.85 0.50 0.47 0.43 0.67 0.60 0.55 0.51 0.57 0.64 0.72 0.80 0.77 1.29 1.54 2.13 2.57 2.55 2.35 2.68 2.66 2.64 2.46 2.28 1.83 1.57 1.61 1.55
2.23 2.81 2.20 2.39 1.14 0.97 1.12 1.09 0.72 1.00 1.18 1.50 1.00 0.75 0.82 1.15 1.04 0.69 0.65 0.72 0.76 0.82 0.87 0.71 0.61 0.65 0.71 0.79 0.97 1.00 1.34 1.68 2.03 2.28 2.71 2.39 2.79 2.83 2.26 2.12 1.88 1.68 1.64 1.57
2.30 3.35 3.16 3.32 1.42 1.20 2.07 2.03 1.43 1.22 1.19 1.38 1.43 1.26 0.88 1.03 1.22 1.16 1.05 0.94 1.06 1.07 1.26 0.99 0.88 0.83 0.68 0.77 0.72 0.68 0.98 1.41 1.32 1.97 2.84 2.87 3.21 4.24 3.20 2.20 2.10 2.01 2.23 2.13
2.29 2.36 3.22 3.24 2.19 3.14 2.94 1.46 1.39 1.81 1.41 1.24 1.27 1.18 1.29 1.21 1.17 1.33 1.52 1.46 1.09 1.14 1.70 1.75 1.29 1.09 0.93 0.70 0.81 0.87 0.80 1.00 1.20 1.00 1.30 2.41 2.94 3.82 4.65 3.57 2.88 2.95 2.74 2.68
1.93 2.04 3.18 3.45 2.57 2.33 0.95 1.09 1.46 1.91 1.71 1.40 1.71 1.76 1.57 0.97 0.91 1.39 1.77 2.11 1.84 1.69 1.70 2.07 1.77 1.32 1.08 0.87 1.02 1.14 1.24 0.96 1.02 1.15 0.93 1.08 1.91 2.82 3.59 4.16 4.10 3.73 3.61 3.21
1.35 2.07 3.27 3.29 2.81 2.27 1.65 0.87 0.56 1.08 1.79 1.43 1.84 1.84 1.67 1.07 1.55 2.31 2.18 2.43 2.12 2.34 1.99 1.82 1.67 1.71 1.29 1.37 1.10 1.37 1.44 1.65 1.48 1.31 1.30 1.01 1.24 1.67 2.31 3.08 3.23 3.02 2.71 2.78
1.88 2.99 3.38 2.68 2.57 1.68 1.40 0.65 0.32 1.75 2.22 1.71 2.06 1.73 1.62 2.01 2.73 2.91 2.61 2.74 2.26 2.40 2.52 1.93 1.57 1.72 1.71 1.78 1.45 1.43 2.04 2.20 2.35 2.34 2.08 1.73 1.55 1.58 1.78 2.21 2.47 2.37 2.35 2.17
2.07 2.78 2.82 2.61 2.92 2.08 1.34 1.17 1.92 2.53 1.92 1.64 1.57 1.80 2.28 2.50 2.54 2.53 2.38 2.09 1.93 1.76 1.75 2.27 2.15 2.13 2.83 2.27 2.20 2.17 2.30 2.92 2.61 2.52 2.31 2.10 1.74 1.74 2.14 2.35 2.55 2.42 2.33 2.26
2.29 2.14 2.43 2.77 3.12 2.37 1.78 2.17 2.27 1.91 1.68 1.37 1.28 1.32 1.63 1.64 1.58 1.59 1.34 1.14 1.09 1.26 1.26 1.48 2.15 2.34 2.95 3.12 2.76 2.98 2.77 2.82 2.87 2.60 2.80 2.77 2.52 2.42 2.50 2.76 2.67 2.61 2.49 2.19
1.62 1.01 1.55 2.09 2.28 1.63 1.45 1.20 1.25 1.22 1.33 1.11 0.88 0.80 0.67 0.72 0.75 0.81 0.84 0.68 0.59 0.69 0.81 1.02 1.59 1.77 2.29 2.92 3.55 2.83 3.03 2.77 3.18 3.08 2.87 3.17 3.45 3.46 3.10 3.21 3.24 3.20 2.90 2.64
1.53 1.29 1.51 1.78 2.06 1.31 1.37 1.32 1.37 1.09 0.96 0.76 0.54 0.47 0.44 0.46 0.47 0.40 0.43 0.47 0.49 0.49 0.55 0.83 1.52 1.54 1.61 1.86 2.65 3.08 2.83 2.94 3.15 3.65 3.55 3.55 3.32 3.69 3.91 3.75 3.68 3.27 3.33 3.05
1.09 1.55 1.72 2.15 1.83 1.77 1.85 1.44 1.12 0.99 0.86 0.64 0.38 0.27 0.29 0.27 0.27 0.18 0.15 0.13 0.18 0.28 0.28 0.25 0.34 0.58 0.81 0.84 1.07 1.39 1.94 2.14 2.77 3.37 4.08 4.62 4.83 4.07 3.79 3.74 4.05 4.44 4.41 4.48